• In Austria
  • List of Countries
  • For 7 days
  • Water Temperature
  • Satellite Maps
  • Weather Map
  • News
  • Weather Widgets
  • user-avatar
    Login

    Hourly Weather Borovec

    Today, 23 February, Friday

    Time Temperature Precipitation Wind Pressure Humidity
    00:00 +2°C° 0 mm 1 mps 708 mmHg 93%
    01:00 +2°C° 0 mm 1 mps 708 mmHg 93%
    02:00 +2°C° 0 mm 1 mps 708 mmHg 94%
    03:00 +2°C° 0 mm 1 mps 708 mmHg 94%
    04:00 +2°C° 0 mm 1 mps 708 mmHg 94%
    05:00 +2°C° 0 mm 1 mps 708 mmHg 94%
    06:00 +2°C° 0 mm 1 mps 708 mmHg 94%
    07:00 +2°C° 0 mm 1 mps 708 mmHg 93%
    08:00 +2°C° 0 mm 1 mps 708 mmHg 92%
    09:00 +3°C° 0 mm 1 mps 708 mmHg 88%
    10:00 +4°C° 0 mm 2 mps 709 mmHg 83%
    11:00 +5°C° 0 mm 2 mps 709 mmHg 79%
    12:00 +5°C° 0 mm 2 mps 709 mmHg 78%
    13:00 +6°C° 0 mm 2 mps 708 mmHg 77%
    14:00 +6°C° 0 mm 2 mps 708 mmHg 75%
    15:00 +6°C° 0 mm 2 mps 708 mmHg 77%
    16:00 +6°C° 0 mm 2 mps 708 mmHg 79%
    17:00 +5°C° 0 mm 2 mps 708 mmHg 81%
    18:00 +5°C° 0 mm 2 mps 708 mmHg 84%
    19:00 +4°C° 0 mm 2 mps 708 mmHg 88%
    20:00 +4°C° 0 mm 1 mps 708 mmHg 91%
    21:00 +4°C° 0 mm 1 mps 708 mmHg 92%
    22:00 +3°C° 0 mm 1 mps 708 mmHg 93%
    23:00 +3°C° 0 mm 1 mps 707 mmHg 94%

    Tomorrow, 24 February, Saturday

    Time Temperature Precipitation Wind Pressure Humidity
    00:00 +3°C° 0 mm 1 mps 707 mmHg 94%
    01:00 +3°C° 0 mm 1 mps 707 mmHg 94%
    02:00 +3°C° 0 mm 1 mps 707 mmHg 95%
    03:00 +3°C° 0 mm 1 mps 707 mmHg 95%
    04:00 +3°C° 0 mm 1 mps 707 mmHg 95%
    05:00 +3°C° 0 mm 1 mps 706 mmHg 94%
    06:00 +3°C° 0 mm 1 mps 706 mmHg 94%
    07:00 +3°C° 0 mm 1 mps 706 mmHg 93%
    08:00 +3°C° 0 mm 1 mps 706 mmHg 92%
    09:00 +4°C° 0 mm 1 mps 706 mmHg 87%
    10:00 +6°C° 0 mm 1 mps 706 mmHg 81%
    11:00 +7°C° 0 mm 1 mps 706 mmHg 75%
    12:00 +7°C° 0 mm 1 mps 706 mmHg 74%
    13:00 +8°C° 0 mm 1 mps 705 mmHg 72%
    14:00 +7°C° 0 mm 2 mps 705 mmHg 71%
    15:00 +7°C° 0 mm 2 mps 705 mmHg 74%
    16:00 +6°C° 0 mm 2 mps 704 mmHg 77%
    17:00 +6°C° 0 mm 2 mps 704 mmHg 80%
    18:00 +5°C° 0.1 mm 2 mps 704 mmHg 83%
    19:00 +4°C° 0.1 mm 2 mps 704 mmHg 86%
    20:00 +4°C° 0.1 mm 2 mps 704 mmHg 89%
    21:00 +3°C° 0.1 mm 2 mps 704 mmHg 90%
    22:00 +3°C° 0.1 mm 2 mps 705 mmHg 90%
    23:00 +2°C° 0.1 mm 2 mps 705 mmHg 90%

    Day after tomorrow, 25 February, Sunday

    Time Temperature Precipitation Wind Pressure Humidity
    00:00 +2°C° 0.1 mm 2 mps 705 mmHg 90%
    01:00 +1°C° 0.1 mm 2 mps 705 mmHg 89%
    02:00 +1°C° 0.1 mm 2 mps 706 mmHg 88%
    03:00 -1°C° 0.1 mm 2 mps 706 mmHg 87%
    04:00 -1°C° 0.1 mm 2 mps 706 mmHg 86%
    05:00 -2°C° 0.1 mm 2 mps 706 mmHg 85%
    06:00 -2°C° 0.1 mm 2 mps 706 mmHg 83%
    07:00 -3°C° 0.1 mm 2 mps 707 mmHg 81%
    08:00 -3°C° 0.1 mm 2 mps 707 mmHg 79%
    09:00 -3°C° 0.1 mm 2 mps 707 mmHg 77%
    10:00 -2°C° 0.1 mm 2 mps 708 mmHg 74%
    11:00 -2°C° 0.1 mm 2 mps 708 mmHg 71%
    12:00 -2°C° 0.3 mm 2 mps 708 mmHg 73%
    13:00 -2°C° 0.3 mm 2 mps 708 mmHg 75%
    14:00 -2°C° 0.3 mm 2 mps 708 mmHg 77%
    15:00 -2°C° 0.4 mm 2 mps 708 mmHg 79%
    16:00 -3°C° 0.4 mm 2 mps 708 mmHg 82%
    17:00 -3°C° 0.4 mm 2 mps 708 mmHg 84%
    18:00 -3°C° 0.2 mm 2 mps 708 mmHg 86%
    19:00 -4°C° 0.2 mm 2 mps 708 mmHg 87%
    20:00 -4°C° 0.2 mm 2 mps 708 mmHg 88%
    21:00 -4°C° 0.3 mm 2 mps 708 mmHg 89%
    22:00 -4°C° 0.3 mm 2 mps 708 mmHg 89%
    23:00 -4°C° 0.3 mm 2 mps 708 mmHg 90%

    26 February, Monday

    Time Temperature Precipitation Wind Pressure Humidity
    00:00 -5°C° 0.3 mm 2 mps 708 mmHg 90%
    01:00 -5°C° 0.3 mm 2 mps 708 mmHg 90%
    02:00 -6°C° 0.3 mm 3 mps 707 mmHg 91%
    03:00 -6°C° 0.2 mm 3 mps 707 mmHg 90%
    04:00 -6°C° 0.2 mm 3 mps 707 mmHg 90%
    05:00 -7°C° 0.2 mm 3 mps 706 mmHg 89%
    06:00 -7°C° 0.4 mm 3 mps 706 mmHg 89%
    07:00 -7°C° 0.4 mm 3 mps 706 mmHg 90%
    08:00 -7°C° 0.4 mm 3 mps 705 mmHg 90%
    09:00 -8°C° 0.6 mm 4 mps 705 mmHg 89%
    10:00 -8°C° 0.6 mm 4 mps 705 mmHg 88%
    11:00 -7°C° 0.6 mm 4 mps 704 mmHg 87%
    12:00 -7°C° 0.6 mm 4 mps 704 mmHg 87%
    13:00 -7°C° 0.6 mm 4 mps 703 mmHg 87%
    14:00 -7°C° 0.6 mm 4 mps 703 mmHg 87%
    15:00 -8°C° 0.8 mm 4 mps 702 mmHg 89%
    16:00 -8°C° 0.8 mm 4 mps 702 mmHg 90%
    17:00 -7°C° 0.8 mm 3 mps 702 mmHg 92%
    18:00 -8°C° 0.6 mm 3 mps 702 mmHg 92%
    19:00 -8°C° 0.6 mm 3 mps 702 mmHg 93%
    20:00 -8°C° 0.6 mm 3 mps 702 mmHg 93%
    21:00 -9°C° 0.6 mm 3 mps 702 mmHg 93%
    22:00 -8°C° 0.6 mm 2 mps 702 mmHg 94%
    23:00 -8°C° 0.6 mm 2 mps 702 mmHg 94%

    27 February, Tuesday

    Time Temperature Precipitation Wind Pressure Humidity
    00:00 -8°C° 0.5 mm 2 mps 702 mmHg 94%
    01:00 -9°C° 0.5 mm 2 mps 702 mmHg 94%
    02:00 -9°C° 0.5 mm 2 mps 702 mmHg 94%
    03:00 -9°C° 0.4 mm 2 mps 701 mmHg 94%
    04:00 -9°C° 0.4 mm 2 mps 701 mmHg 94%
    05:00 -8°C° 0.4 mm 1 mps 701 mmHg 94%
    06:00 -8°C° 0.2 mm 1 mps 701 mmHg 93%
    07:00 -8°C° 0.2 mm 1 mps 701 mmHg 93%
    08:00 -8°C° 0.2 mm 1 mps 701 mmHg 92%
    09:00 -7°C° 0.2 mm 1 mps 701 mmHg 90%
    10:00 -6°C° 0.2 mm 1 mps 702 mmHg 88%
    11:00 -5°C° 0.2 mm 2 mps 702 mmHg 86%
    12:00 -4°C° 0.1 mm 2 mps 702 mmHg 86%
    13:00 -2°C° 0.1 mm 1 mps 702 mmHg 85%
    14:00 -1°C° 0.1 mm 1 mps 702 mmHg 85%
    15:00 -1°C° 0.1 mm 1 mps 702 mmHg 86%
    16:00 -1°C° 0.1 mm 1 mps 702 mmHg 87%
    17:00 -1°C° 0.1 mm 1 mps 702 mmHg 87%
    18:00 -2°C° 0.1 mm 1 mps 703 mmHg 89%
    19:00 -3°C° 0.1 mm 1 mps 703 mmHg 91%
    20:00 -4°C° 0.1 mm 1 mps 703 mmHg 93%
    21:00 -6°C° 0.1 mm 1 mps 704 mmHg 93%
    22:00 -6°C° 0.1 mm 1 mps 704 mmHg 92%
    23:00 -7°C° 0.1 mm 1 mps 704 mmHg 92%

    28 February, Wednesday

    Time Temperature Precipitation Wind Pressure Humidity
    00:00 -7°C° 0 mm 1 mps 704 mmHg 92%
    01:00 -7°C° 0 mm 1 mps 705 mmHg 92%
    02:00 -7°C° 0 mm 1 mps 705 mmHg 92%
    03:00 -8°C° 0 mm 1 mps 705 mmHg 92%
    04:00 -8°C° 0 mm 1 mps 705 mmHg 92%
    05:00 -8°C° 0 mm 1 mps 705 mmHg 92%
    06:00 -8°C° 0 mm 1 mps 705 mmHg 91%
    07:00 -8°C° 0 mm 1 mps 705 mmHg 91%
    08:00 -8°C° 0 mm 1 mps 706 mmHg 90%
    09:00 -6°C° 0 mm 1 mps 706 mmHg 87%
    10:00 -4°C° 0 mm 1 mps 707 mmHg 84%
    11:00 -2°C° 0 mm 1 mps 707 mmHg 81%
    12:00 -1°C° 0 mm 1 mps 707 mmHg 80%
    13:00 -1°C° 0 mm 1 mps 707 mmHg 78%
    14:00 -2°C° 0 mm 2 mps 707 mmHg 77%
    15:00 0°C° 0 mm 1 mps 707 mmHg 78%
    16:00 0°C° 0 mm 1 mps 708 mmHg 79%
    17:00 -1°C° 0 mm 1 mps 708 mmHg 80%
    18:00 -2°C° 0 mm 1 mps 708 mmHg 82%
    19:00 -4°C° 0 mm 1 mps 708 mmHg 83%
    20:00 -7°C° 0 mm 1 mps 708 mmHg 84%
    21:00 -7°C° 0 mm 1 mps 709 mmHg 83%
    22:00 -7°C° 0 mm 1 mps 709 mmHg 81%
    23:00 -7°C° 0 mm 1 mps 710 mmHg 79%
    Show more